Weather past 2 weeks in Jamestown, Saint Helena

Now
58 °F

Cool.


Feels Like: 54 °F
Forecast: 67 / 70 °F
Wind: 18 mph from Southeast

Location: Saint Helena Island

Current Time: Sep 20, 2014 at 12:56:47 AM

Latest Report: Sep 19, 2014 at 11:00 PM


Visibility: N/A

Pressure: 30.17 "Hg

Humidity: 97%

Dew point: 57 °F

Location of JamestownLocation

Historic Weather in Jamestown — Graph

°F

Jamestown temperature yesterday

Maximum temperature yesterday: 62 °F (at 2:00 PM)
Minimum temperature yesterday: 58 °F (at 5:00 AM)
Average temperature yesterday: 59 °F

Past Weeks' High & Low Weather Summary

 TemperatureHumidityPressure
High67 °F (Sep 16, 1:00 PM)100% (Sep 6, 5:00 AM)30.19 "Hg (Sep 6, 5:00 AM)
Low58 °F (Sep 19, 5:00 AM)70% (Sep 16, 1:00 PM)30.02 "Hg (Sep 15, 4:00 PM)
Average61 °F87%30.10 "Hg
* Reported Sep 4 11:00 PM — Sep 19 11:00 PM, Jamestown, Weather by CustomWeather, © 2014

Note: Actual official high and low records may vary slightly from our data, if they occured in-between our weather recording intervals... More about our weather records

Advertising

Jamestown weather history for previous 24 hours

 ConditionsComfort  
Time TempWeatherWind HumidityBarometerVisibility
11:00 PM
Sep 19
58 °FCool.18 mph97%30.17 "HgN/A
10:00 PM58 °FCool.17 mph97%30.17 "HgN/A
7:00 PM59 °FCool.17 mph93%30.12 "HgN/A
5:00 PM59 °FCool.16 mph94%30.08 "HgN/A
4:00 PM59 °FCool.18 mph97%30.08 "HgN/A
3:00 PM60 °FLow clouds.20 mph88%30.08 "Hg2 mi
2:00 PM62 °FLow clouds.18 mph84%30.09 "Hg2 mi
1:00 PM60 °FCool.20 mph91%30.13 "HgN/A
12:00 PM62 °FCool.20 mph79%30.14 "HgN/A
11:00 AM61 °FLow clouds.21 mph85%30.15 "Hg9 mi
10:00 AM60 °FCool.21 mph89%30.15 "HgN/A
9:00 AM58 °FCool.17 mph95%30.16 "HgN/A
8:00 AM58 °FCool.22 mph89%30.15 "HgN/A
7:00 AM59 °FCool.17 mph79%30.13 "HgN/A
5:00 AM58 °FCool.18 mph96%30.10 "HgN/A
4:00 AM59 °FCool.17 mph77%30.10 "HgN/A
3:00 AM59 °FCool.15 mph82%30.12 "HgN/A
2:00 AM58 °FCool.18 mph91%30.14 "HgN/A
1:00 AM58 °FCool.20 mph91%30.15 "HgN/A
Weather by CustomWeather, © 2014

See weather overviewHow to use our weather pages